Time,TemperatureF,DewpointF,PressureIn,WindDirection,WindDirectionDegrees,WindSpeedMPH,WindSpeedGustMPH,Humidity,HourlyPrecipIn,Conditions,Clouds,dailyrainin,SolarRadiationWatts/m^2,SoftwareType,DateUTC
2013-09-17 00:02:00,47.0,43.0,30.34,ENE,72,0.0,0.0,86,0.00,CLR,,0.00,0.0,WeatherDisplay:10.37,2013-09-17 05:02:00,
2013-09-17 00:07:00,47.0,43.0,30.34,ENE,72,0.0,0.0,86,0.00,CLR,,0.00,0.0,WeatherDisplay:10.37,2013-09-17 05:07:00,
2013-09-17 00:12:00,46.8,43.1,30.34,ENE,72,0.0,0.0,87,0.00,CLR,,0.00,0.0,WeatherDisplay:10.37,2013-09-17 05:12:00,
2013-09-17 00:17:00,46.8,43.1,30.34,ENE,72,0.0,0.0,87,0.00,CLR,,0.00,0.0,WeatherDisplay:10.37,2013-09-17 05:17:00,
2013-09-17 00:22:00,46.8,43.1,30.34,ENE,72,0.0,0.0,87,0.00,CLR,,0.00,0.0,WeatherDisplay:10.37,2013-09-17 05:22:00,
2013-09-17 00:27:00,46.8,43.4,30.34,ENE,72,0.0,0.0,88,0.00,CLR,,0.00,0.0,WeatherDisplay:10.37,2013-09-17 05:27:00,
2013-09-17 00:32:00,46.7,43.3,30.34,ENE,72,0.0,0.0,88,0.00,CLR,,0.00,0.0,WeatherDisplay:10.37,2013-09-17 05:32:00,
2013-09-17 00:37:00,46.5,43.1,30.34,ENE,72,0.0,0.0,88,0.00,CLR,,0.00,0.0,WeatherDisplay:10.37,2013-09-17 05:37:00,
2013-09-17 00:42:00,46.4,43.0,30.34,ENE,72,0.0,0.0,88,0.00,CLR,,0.00,0.0,WeatherDisplay:10.37,2013-09-17 05:42:00,
2013-09-17 00:47:00,46.2,43.1,30.34,ENE,72,0.0,0.0,89,0.00,CLR,,0.00,0.0,WeatherDisplay:10.37,2013-09-17 05:47:00,
2013-09-17 00:52:00,46.1,43.0,30.34,ENE,72,0.0,0.0,89,0.00,CLR,,0.00,0.0,WeatherDisplay:10.37,2013-09-17 05:52:00,
2013-09-17 00:57:00,46.0,42.9,30.34,ENE,72,0.0,0.0,89,0.00,CLR,,0.00,0.0,WeatherDisplay:10.37,2013-09-17 05:57:00,
2013-09-17 01:02:00,45.8,43.0,30.34,ENE,72,0.0,0.0,90,0.00,CLR,,0.00,0.0,WeatherDisplay:10.37,2013-09-17 06:02:00,
2013-09-17 01:07:00,45.7,42.9,30.34,ENE,72,0.0,0.0,90,0.00,CLR,,0.00,0.0,WeatherDisplay:10.37,2013-09-17 06:07:00,
2013-09-17 01:12:00,45.5,42.7,30.34,ENE,72,0.0,0.0,90,0.00,CLR,,0.00,0.0,WeatherDisplay:10.37,2013-09-17 06:12:00,
2013-09-17 01:17:00,45.4,42.6,30.34,ENE,72,0.0,0.0,90,0.00,CLR,,0.00,0.0,WeatherDisplay:10.37,2013-09-17 06:17:00,
2013-09-17 01:22:00,45.2,42.4,30.34,ENE,72,0.0,0.0,90,0.00,CLR,,0.00,0.0,WeatherDisplay:10.37,2013-09-17 06:22:00,
2013-09-17 01:27:00,45.1,42.3,30.34,ENE,72,0.0,0.0,90,0.00,CLR,,0.00,0.0,WeatherDisplay:10.37,2013-09-17 06:27:00,
2013-09-17 01:32:00,44.9,42.4,30.34,ENE,72,0.0,0.0,91,0.00,CLR,,0.00,0.0,WeatherDisplay:10.37,2013-09-17 06:32:00,
2013-09-17 01:37:00,44.8,42.3,30.34,ENE,72,0.0,0.0,91,0.00,CLR,,0.00,0.0,WeatherDisplay:10.37,2013-09-17 06:37:00,
2013-09-17 01:42:00,44.8,42.3,30.34,ENE,72,0.0,0.0,91,0.00,CLR,,0.00,0.0,WeatherDisplay:10.37,2013-09-17 06:42:00,
2013-09-17 01:47:00,44.6,42.1,30.34,ENE,72,0.0,0.0,91,0.00,CLR,,0.00,0.0,WeatherDisplay:10.37,2013-09-17 06:47:00,
2013-09-17 01:52:00,44.5,42.0,30.34,ENE,72,0.0,0.0,91,0.00,CLR,,0.00,0.0,WeatherDisplay:10.37,2013-09-17 06:52:00,
2013-09-17 01:57:00,44.3,42.1,30.34,ENE,72,0.0,0.0,92,0.00,CLR,,0.00,0.0,WeatherDisplay:10.37,2013-09-17 06:57:00,
2013-09-17 02:02:00,44.3,42.1,30.34,ENE,72,0.0,0.0,92,0.00,CLR,,0.00,0.0,WeatherDisplay:10.37,2013-09-17 07:02:00,
2013-09-17 02:07:00,44.1,41.9,30.34,ENE,72,0.0,0.0,92,0.00,CLR,,0.00,0.0,WeatherDisplay:10.37,2013-09-17 07:07:00,
2013-09-17 02:12:00,43.9,41.7,30.34,ENE,72,0.0,0.0,92,0.00,CLR,,0.00,0.0,WeatherDisplay:10.37,2013-09-17 07:12:00,
2013-09-17 02:17:00,43.9,41.7,30.34,ENE,72,0.0,0.0,92,0.00,CLR,,0.00,0.0,WeatherDisplay:10.37,2013-09-17 07:17:00,
2013-09-17 02:22:00,43.9,41.7,30.34,ENE,72,0.0,0.0,92,0.00,CLR,,0.00,0.0,WeatherDisplay:10.37,2013-09-17 07:22:00,
2013-09-17 02:27:00,43.9,41.7,30.34,ENE,72,0.0,0.0,92,0.00,CLR,,0.00,0.0,WeatherDisplay:10.37,2013-09-17 07:27:00,
2013-09-17 02:32:00,43.8,41.6,30.34,ENE,72,0.0,0.0,92,0.00,CLR,,0.00,0.0,WeatherDisplay:10.37,2013-09-17 07:32:00,
2013-09-17 02:37:00,43.6,41.7,30.34,ENE,72,0.0,0.0,93,0.00,CLR,,0.00,0.0,WeatherDisplay:10.37,2013-09-17 07:37:00,
2013-09-17 02:42:00,43.6,41.7,30.34,ENE,72,0.0,0.0,93,0.00,CLR,,0.00,0.0,WeatherDisplay:10.37,2013-09-17 07:42:00,
2013-09-17 02:47:00,43.3,41.4,30.34,ENE,72,0.0,0.0,93,0.00,CLR,,0.00,0.0,WeatherDisplay:10.37,2013-09-17 07:47:00,
2013-09-17 02:52:00,43.3,41.4,30.34,ENE,72,0.0,0.0,93,0.00,CLR,,0.00,0.0,WeatherDisplay:10.37,2013-09-17 07:52:00,
2013-09-17 02:57:00,43.2,41.3,30.34,ENE,72,0.0,0.0,93,0.00,CLR,,0.00,0.0,WeatherDisplay:10.37,2013-09-17 07:57:00,
2013-09-17 03:02:00,43.2,41.3,30.33,ENE,72,0.0,0.0,93,0.00,CLR,,0.00,0.0,WeatherDisplay:10.37,2013-09-17 08:02:00,
2013-09-17 03:07:00,43.1,41.2,30.33,ENE,72,0.0,0.0,93,0.00,CLR,,0.00,0.0,WeatherDisplay:10.37,2013-09-17 08:07:00,
2013-09-17 03:12:00,42.9,41.0,30.33,ENE,72,0.0,0.0,93,0.00,CLR,,0.00,0.0,WeatherDisplay:10.37,2013-09-17 08:12:00,
2013-09-17 03:17:00,42.9,41.0,30.33,ENE,72,0.0,0.0,93,0.00,CLR,,0.00,0.0,WeatherDisplay:10.37,2013-09-17 08:17:00,
2013-09-17 03:22:00,42.8,40.9,30.33,ENE,72,0.0,0.0,93,0.00,CLR,,0.00,0.0,WeatherDisplay:10.37,2013-09-17 08:22:00,
2013-09-17 03:27:00,42.8,40.9,30.33,ENE,72,0.0,0.0,93,0.00,CLR,,0.00,0.0,WeatherDisplay:10.37,2013-09-17 08:27:00,
2013-09-17 03:32:00,42.6,40.7,30.32,ENE,72,0.0,0.0,93,0.00,CLR,,0.00,0.0,WeatherDisplay:10.37,2013-09-17 08:32:00,
2013-09-17 03:37:00,42.6,41.0,30.32,ENE,72,0.0,0.0,94,0.00,CLR,,0.00,0.0,WeatherDisplay:10.37,2013-09-17 08:37:00,
2013-09-17 03:42:00,42.5,40.9,30.32,ENE,72,0.0,0.0,94,0.00,CLR,,0.00,0.0,WeatherDisplay:10.37,2013-09-17 08:42:00,
2013-09-17 03:47:00,42.3,40.7,30.32,ENE,72,0.0,0.0,94,0.00,CLR,,0.00,0.0,WeatherDisplay:10.37,2013-09-17 08:47:00,
2013-09-17 03:52:00,42.5,40.9,30.32,ENE,72,0.0,0.0,94,0.00,CLR,,0.00,0.0,WeatherDisplay:10.37,2013-09-17 08:52:00,
2013-09-17 03:57:00,42.5,40.9,30.32,ENE,72,0.0,0.0,94,0.00,CLR,,0.00,0.0,WeatherDisplay:10.37,2013-09-17 08:57:00,
2013-09-17 04:02:00,42.3,40.7,30.32,ENE,72,0.0,0.0,94,0.00,CLR,,0.00,0.0,WeatherDisplay:10.37,2013-09-17 09:02:00,
2013-09-17 04:07:00,42.2,40.6,30.32,ENE,72,0.0,0.0,94,0.00,CLR,,0.00,0.0,WeatherDisplay:10.37,2013-09-17 09:07:00,
2013-09-17 04:12:00,42.1,40.5,30.32,ENE,72,0.0,0.0,94,0.00,CLR,,0.00,0.0,WeatherDisplay:10.37,2013-09-17 09:12:00,
2013-09-17 04:17:00,42.1,40.5,30.32,ENE,72,0.0,0.0,94,0.00,CLR,,0.00,0.0,WeatherDisplay:10.37,2013-09-17 09:17:00,
2013-09-17 04:22:00,42.1,40.5,30.32,ENE,72,0.0,0.0,94,0.00,CLR,,0.00,0.0,WeatherDisplay:10.37,2013-09-17 09:22:00,
2013-09-17 04:27:00,41.9,40.3,30.32,ENE,72,0.0,0.0,94,0.00,CLR,,0.00,0.0,WeatherDisplay:10.37,2013-09-17 09:27:00,
2013-09-17 04:32:00,42.1,40.8,30.32,ENE,72,0.0,0.0,95,0.00,CLR,,0.00,0.0,WeatherDisplay:10.37,2013-09-17 09:32:00,
2013-09-17 04:37:00,42.2,40.9,30.32,ENE,72,0.0,0.0,95,0.00,CLR,,0.00,0.0,WeatherDisplay:10.37,2013-09-17 09:37:00,
2013-09-17 04:42:00,42.2,40.9,30.32,ENE,72,0.0,0.0,95,0.00,CLR,,0.00,0.0,WeatherDisplay:10.37,2013-09-17 09:42:00,
2013-09-17 04:47:00,42.1,40.8,30.32,ENE,72,0.0,0.0,95,0.00,CLR,,0.00,0.0,WeatherDisplay:10.37,2013-09-17 09:47:00,
2013-09-17 04:52:00,41.9,40.6,30.32,ENE,72,0.0,0.0,95,0.00,CLR,,0.00,0.0,WeatherDisplay:10.37,2013-09-17 09:52:00,
2013-09-17 04:57:00,41.8,40.5,30.32,ENE,72,0.0,0.0,95,0.00,CLR,,0.00,0.0,WeatherDisplay:10.37,2013-09-17 09:57:00,
2013-09-17 05:02:00,41.8,40.5,30.32,ENE,72,0.0,0.0,95,0.00,CLR,,0.00,0.0,WeatherDisplay:10.37,2013-09-17 10:02:00,
2013-09-17 05:07:00,41.6,40.3,30.32,ENE,72,0.0,0.0,95,0.00,CLR,,0.00,0.0,WeatherDisplay:10.37,2013-09-17 10:07:00,
2013-09-17 05:12:00,41.5,40.2,30.32,ENE,72,0.0,0.0,95,0.00,CLR,,0.00,0.0,WeatherDisplay:10.37,2013-09-17 10:12:00,
2013-09-17 05:17:00,41.5,40.2,30.31,ENE,72,0.0,0.0,95,0.00,CLR,,0.00,0.0,WeatherDisplay:10.37,2013-09-17 10:17:00,
2013-09-17 05:22:00,41.3,40.0,30.31,ENE,72,0.0,0.0,95,0.00,CLR,,0.00,0.0,WeatherDisplay:10.37,2013-09-17 10:22:00,
2013-09-17 05:27:00,41.2,39.9,30.31,ENE,72,0.0,0.0,95,0.00,CLR,,0.00,0.0,WeatherDisplay:10.37,2013-09-17 10:27:00,
2013-09-17 05:32:00,41.1,39.8,30.31,ENE,72,0.0,0.0,95,0.00,CLR,,0.00,0.0,WeatherDisplay:10.37,2013-09-17 10:32:00,
2013-09-17 05:37:00,41.1,39.8,30.31,ENE,72,0.0,0.0,95,0.00,CLR,,0.00,0.0,WeatherDisplay:10.37,2013-09-17 10:37:00,
2013-09-17 05:42:00,40.9,39.6,30.31,ENE,72,0.0,0.0,95,0.00,CLR,,0.00,0.0,WeatherDisplay:10.37,2013-09-17 10:42:00,
2013-09-17 05:47:00,40.9,39.6,30.31,ENE,72,0.0,0.0,95,0.00,CLR,,0.00,0.0,WeatherDisplay:10.37,2013-09-17 10:47:00,
2013-09-17 05:52:00,40.8,39.5,30.31,ENE,72,0.0,0.0,95,0.00,CLR,,0.00,0.0,WeatherDisplay:10.37,2013-09-17 10:52:00,
2013-09-17 05:57:00,40.8,39.5,30.31,ENE,72,0.0,0.0,95,0.00,CLR,,0.00,0.0,WeatherDisplay:10.37,2013-09-17 10:57:00,
2013-09-17 06:02:00,40.6,39.3,30.31,ENE,72,0.0,0.0,95,0.00,CLR,,0.00,0.0,WeatherDisplay:10.37,2013-09-17 11:02:00,
2013-09-17 06:07:00,40.6,39.3,30.31,ENE,72,0.0,0.0,95,0.00,CLR,,0.00,0.0,WeatherDisplay:10.37,2013-09-17 11:07:00,
2013-09-17 06:12:00,40.5,39.2,30.31,ENE,72,0.0,0.0,95,0.00,CLR,,0.00,0.0,WeatherDisplay:10.37,2013-09-17 11:12:00,
2013-09-17 06:17:00,40.6,39.5,30.31,ENE,72,0.0,0.0,96,0.00,CLR,,0.00,0.0,WeatherDisplay:10.37,2013-09-17 11:17:00,
2013-09-17 06:22:00,40.8,39.5,30.31,ENE,72,0.0,0.0,95,0.00,CLR,,0.00,0.0,WeatherDisplay:10.37,2013-09-17 11:22:00,
2013-09-17 06:27:00,40.6,39.3,30.31,ENE,72,0.0,0.0,95,0.00,CLR,,0.00,0.0,WeatherDisplay:10.37,2013-09-17 11:27:00,
2013-09-17 06:32:00,40.5,39.2,30.31,ENE,72,0.0,0.0,95,0.00,CLR,,0.00,0.0,WeatherDisplay:10.37,2013-09-17 11:32:00,
2013-09-17 06:37:00,40.5,39.2,30.31,ENE,72,0.0,0.0,95,0.00,CLR,,0.00,5.0,WeatherDisplay:10.37,2013-09-17 11:37:00,
2013-09-17 06:42:00,40.3,39.0,30.31,ENE,72,0.0,0.0,95,0.00,CLR,,0.00,7.0,WeatherDisplay:10.37,2013-09-17 11:42:00,
2013-09-17 06:47:00,40.2,38.9,30.31,ENE,72,0.0,0.0,95,0.00,CLR,,0.00,11.0,WeatherDisplay:10.37,2013-09-17 11:47:00,
2013-09-17 06:52:00,40.2,38.9,30.31,ENE,72,0.0,0.0,95,0.00,CLR,,0.00,14.0,WeatherDisplay:10.37,2013-09-17 11:52:00,
2013-09-17 06:57:00,40.2,39.2,30.31,ENE,72,0.0,0.0,96,0.00,CLR,,0.00,21.0,WeatherDisplay:10.37,2013-09-17 11:57:00,
2013-09-17 07:02:00,40.2,39.2,30.31,ENE,72,0.0,0.0,96,0.00,CLR,,0.00,28.0,WeatherDisplay:10.37,2013-09-17 12:02:00,
2013-09-17 07:07:00,40.3,39.3,30.31,ENE,72,0.0,0.0,96,0.00,CLR,,0.00,37.0,WeatherDisplay:10.37,2013-09-17 12:07:00,
2013-09-17 07:12:00,40.5,39.4,30.31,ENE,72,0.0,0.0,96,0.00,CLR,,0.00,44.0,WeatherDisplay:10.37,2013-09-17 12:12:00,
2013-09-17 07:17:00,40.6,39.5,30.31,ENE,72,0.0,0.0,96,0.00,CLR,,0.00,62.0,WeatherDisplay:10.37,2013-09-17 12:17:00,
2013-09-17 07:22:00,40.8,39.7,30.31,ENE,72,0.0,0.0,96,0.00,CLR,,0.00,47.0,WeatherDisplay:10.37,2013-09-17 12:22:00,
2013-09-17 07:27:00,41.1,40.0,30.31,ENE,72,0.0,0.0,96,0.00,CLR,,0.00,93.0,WeatherDisplay:10.37,2013-09-17 12:27:00,
2013-09-17 07:32:00,41.5,40.4,30.31,ENE,72,0.0,0.0,96,0.00,CLR,,0.00,86.0,WeatherDisplay:10.37,2013-09-17 12:32:00,
2013-09-17 07:37:00,41.6,40.5,30.31,ENE,72,0.0,0.0,96,0.00,CLR,,0.00,74.0,WeatherDisplay:10.37,2013-09-17 12:37:00,
2013-09-17 07:42:00,41.8,40.7,30.31,ENE,72,0.0,0.0,96,0.00,CLR,,0.00,113.0,WeatherDisplay:10.37,2013-09-17 12:42:00,
2013-09-17 07:47:00,41.9,40.8,30.31,ENE,72,0.0,0.0,96,0.00,CLR,,0.00,93.0,WeatherDisplay:10.37,2013-09-17 12:47:00,
2013-09-17 07:52:00,42.2,41.1,30.31,ENE,72,0.0,0.0,96,0.00,CLR,,0.00,76.0,WeatherDisplay:10.37,2013-09-17 12:52:00,
2013-09-17 07:57:00,42.3,41.2,30.31,ENE,72,0.0,0.0,96,0.00,CLR,,0.00,132.0,WeatherDisplay:10.37,2013-09-17 12:57:00,
2013-09-17 08:02:00,42.8,41.7,30.30,ENE,72,0.0,0.0,96,0.00,CLR,,0.00,146.0,WeatherDisplay:10.37,2013-09-17 13:02:00,
2013-09-17 08:07:00,43.3,42.2,30.30,ENE,72,0.0,0.0,96,0.00,CLR,,0.00,146.0,WeatherDisplay:10.37,2013-09-17 13:07:00,
2013-09-17 08:12:00,43.6,42.5,30.30,ENE,72,0.0,0.0,96,0.00,CLR,,0.00,123.0,WeatherDisplay:10.37,2013-09-17 13:12:00,
2013-09-17 08:17:00,43.9,42.8,30.30,ENE,72,0.0,0.0,96,0.00,CLR,,0.00,153.0,WeatherDisplay:10.37,2013-09-17 13:17:00,
2013-09-17 08:22:00,44.3,43.2,30.30,ENE,72,0.0,0.0,96,0.00,CLR,,0.00,221.0,WeatherDisplay:10.37,2013-09-17 13:22:00,
2013-09-17 08:27:00,45.1,44.0,30.30,ENE,72,0.0,0.0,96,0.00,CLR,,0.00,207.0,WeatherDisplay:10.37,2013-09-17 13:27:00,
2013-09-17 08:32:00,45.7,44.6,30.30,ENE,72,0.0,0.0,96,0.00,CLR,,0.00,220.0,WeatherDisplay:10.37,2013-09-17 13:32:00,
2013-09-17 08:37:00,46.0,44.9,30.30,ENE,72,0.0,0.0,96,0.00,CLR,,0.00,171.0,WeatherDisplay:10.37,2013-09-17 13:37:00,
2013-09-17 08:42:00,46.2,45.1,30.30,ENE,72,0.0,0.0,96,0.00,CLR,,0.00,255.0,WeatherDisplay:10.37,2013-09-17 13:42:00,
2013-09-17 08:47:00,46.8,45.7,30.30,ENE,72,0.0,0.0,96,0.00,CLR,,0.00,264.0,WeatherDisplay:10.37,2013-09-17 13:47:00,
2013-09-17 08:52:00,47.3,46.2,30.30,East,83,0.0,0.0,96,0.00,CLR,,0.00,207.0,WeatherDisplay:10.37,2013-09-17 13:52:00,
2013-09-17 08:57:00,47.6,46.2,30.30,East,83,0.0,0.0,95,0.00,CLR,,0.00,179.0,WeatherDisplay:10.37,2013-09-17 13:57:00,
2013-09-17 09:02:00,47.7,46.3,30.30,SSE,157,0.0,0.0,95,0.00,SCT,,0.00,188.0,WeatherDisplay:10.37,2013-09-17 14:02:00,
2013-09-17 09:07:00,48.0,46.6,30.30,SSE,157,0.0,0.0,95,0.00,SCT,,0.00,181.0,WeatherDisplay:10.37,2013-09-17 14:07:00,
2013-09-17 09:12:00,48.3,46.9,30.30,SSE,157,0.0,0.0,95,0.00,SCT,,0.00,179.0,WeatherDisplay:10.37,2013-09-17 14:12:00,
2013-09-17 09:17:00,48.6,47.0,30.29,SSE,157,0.0,0.0,94,0.00,SCT,,0.00,183.0,WeatherDisplay:10.37,2013-09-17 14:17:00,
2013-09-17 09:22:00,48.8,47.2,30.29,SSE,157,0.0,0.0,94,0.00,SCT,,0.00,197.0,WeatherDisplay:10.37,2013-09-17 14:22:00,
2013-09-17 09:27:00,49.2,47.5,30.29,SE,144,0.0,0.0,94,0.00,SCT,,0.00,199.0,WeatherDisplay:10.37,2013-09-17 14:27:00,
2013-09-17 09:32:00,49.5,47.8,30.29,SE,144,0.0,0.0,94,0.00,SCT,,0.00,209.0,WeatherDisplay:10.37,2013-09-17 14:32:00,
2013-09-17 09:37:00,49.9,48.2,30.29,SE,143,0.0,1.2,94,0.00,SCT,,0.00,332.0,WeatherDisplay:10.37,2013-09-17 14:37:00,
2013-09-17 09:42:00,50.4,48.7,30.29,SE,143,0.0,0.0,94,0.00,SCT,,0.00,251.0,WeatherDisplay:10.37,2013-09-17 14:42:00,
2013-09-17 09:47:00,51.1,49.1,30.29,SSE,160,0.0,1.1,93,0.00,SCT,,0.00,397.0,WeatherDisplay:10.37,2013-09-17 14:47:00,
2013-09-17 09:52:00,51.9,49.9,30.29,SSE,155,0.0,1.1,93,0.00,SCT,,0.00,411.0,WeatherDisplay:10.37,2013-09-17 14:52:00,
2013-09-17 09:57:00,52.5,50.2,30.29,SSE,155,0.0,0.0,92,0.00,SCT,,0.00,476.0,WeatherDisplay:10.37,2013-09-17 14:57:00,
2013-09-17 10:02:00,53.1,50.2,30.29,SSW,203,0.0,6.9,90,0.00,SCT,,0.00,473.0,WeatherDisplay:10.37,2013-09-17 15:02:00,
2013-09-17 10:07:00,53.9,49.8,30.29,SSW,200,0.0,1.2,86,0.00,SCT,,0.00,592.0,WeatherDisplay:10.37,2013-09-17 15:07:00,
2013-09-17 10:12:00,54.4,50.0,30.29,South,180,2.2,5.8,85,0.00,SCT,,0.00,592.0,WeatherDisplay:10.37,2013-09-17 15:12:00,
2013-09-17 10:17:00,55.0,49.9,30.28,South,186,0.0,0.0,83,0.00,SCT,,0.00,708.0,WeatherDisplay:10.37,2013-09-17 15:17:00,
2013-09-17 10:22:00,55.6,50.5,30.28,South,186,0.0,0.0,83,0.00,SCT,,0.00,554.0,WeatherDisplay:10.37,2013-09-17 15:22:00,
2013-09-17 10:27:00,56.6,50.5,30.28,South,185,0.0,1.1,80,0.00,SCT,,0.00,431.0,WeatherDisplay:10.37,2013-09-17 15:27:00,
2013-09-17 10:32:00,56.9,50.5,30.28,South,178,0.0,1.2,79,0.00,SCT,,0.00,439.0,WeatherDisplay:10.37,2013-09-17 15:32:00,
2013-09-17 10:37:00,57.6,50.8,30.28,South,175,0.0,0.0,78,0.00,SCT,,0.00,320.0,WeatherDisplay:10.37,2013-09-17 15:37:00,
2013-09-17 10:42:00,57.8,51.0,30.28,South,175,0.0,1.2,78,0.00,SCT,,0.00,269.0,WeatherDisplay:10.37,2013-09-17 15:42:00,
2013-09-17 10:47:00,57.6,50.8,30.28,South,178,0.0,3.5,78,0.00,SCT,,0.00,295.0,WeatherDisplay:10.37,2013-09-17 15:47:00,
2013-09-17 10:52:00,57.6,50.8,30.28,East,90,0.0,0.0,78,0.00,SCT,,0.00,316.0,WeatherDisplay:10.37,2013-09-17 15:52:00,
2013-09-17 10:57:00,57.8,50.6,30.28,East,89,0.0,1.1,77,0.00,SCT,,0.00,355.0,WeatherDisplay:10.37,2013-09-17 15:57:00,
2013-09-17 11:02:00,58.0,50.8,30.27,East,91,1.4,4.6,77,0.00,SCT,,0.00,390.0,WeatherDisplay:10.37,2013-09-17 16:02:00,
2013-09-17 11:07:00,58.4,50.9,30.27,ENE,70,0.0,0.0,76,0.00,SCT,,0.00,396.0,WeatherDisplay:10.37,2013-09-17 16:07:00,
2013-09-17 11:12:00,59.3,51.7,30.27,South,175,0.0,0.0,76,0.00,CLR,,0.00,534.0,WeatherDisplay:10.37,2013-09-17 16:12:00,
2013-09-17 11:17:00,59.8,51.5,30.26,SE,131,0.1,1.1,74,0.00,CLR,,0.00,622.0,WeatherDisplay:10.37,2013-09-17 16:17:00,
2013-09-17 11:22:00,60.1,51.4,30.26,ENE,63,0.1,2.3,73,0.00,CLR,,0.00,422.0,WeatherDisplay:10.37,2013-09-17 16:22:00,
2013-09-17 11:28:00,60.5,52.2,30.26,South,183,0.0,0.0,74,0.00,CLR,,0.00,768.0,WeatherDisplay:10.37,2013-09-17 16:28:00,
2013-09-17 11:33:00,61.6,51.3,30.26,SSE,163,0.0,1.1,69,0.00,CLR,,0.00,357.0,WeatherDisplay:10.37,2013-09-17 16:33:00,
2013-09-17 11:38:00,61.3,51.0,30.26,South,188,0.2,3.3,69,0.00,CLR,,0.00,353.0,WeatherDisplay:10.37,2013-09-17 16:38:00,
2013-09-17 11:43:00,60.9,50.3,30.26,South,183,1.3,5.8,68,0.00,CLR,,0.00,357.0,WeatherDisplay:10.37,2013-09-17 16:43:00,
2013-09-17 11:48:00,60.9,51.0,30.25,South,184,0.6,3.5,70,0.00,CLR,,0.00,445.0,WeatherDisplay:10.37,2013-09-17 16:48:00,
2013-09-17 11:53:00,61.0,50.8,30.25,South,184,0.0,0.0,69,0.00,CLR,,0.00,478.0,WeatherDisplay:10.37,2013-09-17 16:53:00,
2013-09-17 11:58:00,61.6,50.1,30.25,South,185,0.6,3.5,66,0.00,CLR,,0.00,441.0,WeatherDisplay:10.37,2013-09-17 16:58:00,
2013-09-17 12:03:00,61.6,50.1,30.25,ESE,105,1.1,5.8,66,0.00,CLR,,0.00,357.0,WeatherDisplay:10.37,2013-09-17 17:03:00,
2013-09-17 12:08:00,61.6,50.5,30.25,SSE,161,0.0,0.0,67,0.00,CLR,,0.00,401.0,WeatherDisplay:10.37,2013-09-17 17:08:00,
2013-09-17 12:13:00,61.5,50.0,30.25,SSE,166,0.9,6.9,66,0.00,CLR,,0.00,406.0,WeatherDisplay:10.37,2013-09-17 17:13:00,
2013-09-17 12:18:00,61.8,50.3,30.23,SSE,164,0.0,1.2,66,0.00,CLR,,0.00,485.0,WeatherDisplay:10.37,2013-09-17 17:18:00,
2013-09-17 12:23:00,62.0,50.5,30.23,SE,142,0.0,1.2,66,0.00,CLR,,0.00,494.0,WeatherDisplay:10.37,2013-09-17 17:23:00,
2013-09-17 12:28:00,62.4,50.9,30.23,SSE,166,2.6,5.8,66,0.00,CLR,,0.00,469.0,WeatherDisplay:10.37,2013-09-17 17:28:00,
2013-09-17 12:33:00,62.7,50.8,30.23,WSW,254,2.1,6.9,65,0.00,CLR,,0.00,691.0,WeatherDisplay:10.37,2013-09-17 17:33:00,
2013-09-17 12:38:00,63.1,50.3,30.23,South,171,2.0,6.9,63,0.00,CLR,,0.00,631.0,WeatherDisplay:10.37,2013-09-17 17:38:00,
2013-09-17 12:43:00,63.2,50.8,30.23,SSW,196,5.4,8.1,64,0.00,SCT,,0.00,561.0,WeatherDisplay:10.37,2013-09-17 17:43:00,
2013-09-17 12:48:00,63.9,51.9,30.22,SSE,167,0.0,0.0,65,0.00,SCT,,0.00,598.0,WeatherDisplay:10.37,2013-09-17 17:48:00,
2013-09-17 12:53:00,64.5,51.6,30.22,SSE,155,4.1,9.9,63,0.00,SCT,,0.00,526.0,WeatherDisplay:10.37,2013-09-17 17:53:00,
2013-09-17 12:58:00,64.3,51.9,30.22,SE,135,0.1,1.2,64,0.00,SCT,,0.00,413.0,WeatherDisplay:10.37,2013-09-17 17:58:00,
2013-09-17 13:03:00,64.2,51.8,30.22,SE,129,0.4,5.5,64,0.00,SCT,,0.00,411.0,WeatherDisplay:10.37,2013-09-17 18:03:00,
2013-09-17 13:08:00,63.9,52.3,30.22,South,171,0.1,12.7,66,0.00,SCT,,0.00,404.0,WeatherDisplay:10.37,2013-09-17 18:08:00,
2013-09-17 13:13:00,64.3,52.3,30.22,SSE,153,3.4,10.4,65,0.00,SCT,,0.00,418.0,WeatherDisplay:10.37,2013-09-17 18:13:00,
2013-09-17 13:18:00,64.3,51.4,30.21,South,191,6.0,17.6,63,0.00,SCT,,0.00,455.0,WeatherDisplay:10.37,2013-09-17 18:18:00,
2013-09-17 13:23:00,64.3,52.3,30.21,SSE,167,1.1,5.8,65,0.00,SCT,,0.00,476.0,WeatherDisplay:10.37,2013-09-17 18:23:00,
2013-09-17 13:28:00,65.2,52.7,30.21,SE,135,0.6,9.2,64,0.00,SCT,,0.00,979.0,WeatherDisplay:10.37,2013-09-17 18:28:00,
2013-09-17 13:33:00,65.6,51.8,30.21,SSW,195,1.2,6.9,61,0.00,SCT,,0.00,666.0,WeatherDisplay:10.37,2013-09-17 18:33:00,
2013-09-17 13:38:00,65.3,52.8,30.21,SSE,167,3.3,6.6,64,0.00,SCT,,0.00,724.0,WeatherDisplay:10.37,2013-09-17 18:38:00,
2013-09-17 13:43:00,65.6,52.7,30.21,South,172,1.7,6.9,63,0.00,CLR,,0.00,810.0,WeatherDisplay:10.37,2013-09-17 18:43:00,
2013-09-17 13:48:00,65.8,52.0,30.21,NE,53,0.4,3.3,61,0.00,CLR,,0.00,422.0,WeatherDisplay:10.37,2013-09-17 18:48:00,
2013-09-17 13:53:00,65.0,52.1,30.21,South,177,3.8,9.2,63,0.00,CLR,,0.00,292.0,WeatherDisplay:10.37,2013-09-17 18:53:00,
2013-09-17 13:58:00,65.0,52.9,30.21,South,181,0.0,1.2,65,0.00,CLR,,0.00,272.0,WeatherDisplay:10.37,2013-09-17 18:58:00,
2013-09-17 14:03:00,65.2,52.7,30.20,South,175,2.8,7.7,64,0.00,SCT,,0.00,283.0,WeatherDisplay:10.37,2013-09-17 19:03:00,
2013-09-17 14:08:00,65.0,52.5,30.20,South,177,0.6,4.6,64,0.00,SCT,,0.00,318.0,WeatherDisplay:10.37,2013-09-17 19:08:00,
2013-09-17 14:13:00,64.8,52.3,30.20,South,170,0.1,1.2,64,0.00,SCT,,0.00,374.0,WeatherDisplay:10.37,2013-09-17 19:13:00,
2013-09-17 14:18:00,65.0,52.1,30.20,South,188,3.3,9.2,63,0.00,SCT,,0.00,404.0,WeatherDisplay:10.37,2013-09-17 19:18:00,
2013-09-17 14:23:00,65.2,51.8,30.20,South,179,4.0,9.2,62,0.00,SCT,,0.00,388.0,WeatherDisplay:10.37,2013-09-17 19:23:00,
2013-09-17 14:28:00,65.0,52.5,30.20,South,171,1.0,6.6,64,0.00,SCT,,0.00,346.0,WeatherDisplay:10.37,2013-09-17 19:28:00,
2013-09-17 14:33:00,65.0,52.1,30.19,SSE,163,0.8,6.9,63,0.00,SCT,,0.00,336.0,WeatherDisplay:10.37,2013-09-17 19:33:00,
2013-09-17 14:38:00,65.0,52.1,30.19,SE,138,1.0,9.2,63,0.00,SCT,,0.00,339.0,WeatherDisplay:10.37,2013-09-17 19:38:00,
2013-09-17 14:43:00,65.2,52.3,30.19,South,175,0.0,1.2,63,0.00,CLR,,0.00,343.0,WeatherDisplay:10.37,2013-09-17 19:43:00,
2013-09-17 14:48:00,65.6,53.1,30.18,South,175,1.9,5.8,64,0.00,CLR,,0.00,308.0,WeatherDisplay:10.37,2013-09-17 19:48:00,
2013-09-17 14:53:00,65.2,52.3,30.18,South,178,2.3,4.6,63,0.00,CLR,,0.00,276.0,WeatherDisplay:10.37,2013-09-17 19:53:00,
2013-09-17 14:58:00,65.2,51.8,30.18,SSE,167,0.2,4.4,62,0.00,CLR,,0.00,267.0,WeatherDisplay:10.37,2013-09-17 19:58:00,
2013-09-17 15:03:00,65.3,51.9,30.18,South,170,0.5,2.3,62,0.00,CLR,,0.00,244.0,WeatherDisplay:10.37,2013-09-17 20:03:00,
2013-09-17 15:08:00,65.3,51.5,30.18,South,169,0.0,1.2,61,0.00,CLR,,0.00,230.0,WeatherDisplay:10.37,2013-09-17 20:08:00,
2013-09-17 15:13:00,65.2,51.4,30.18,South,185,5.0,15.4,61,0.00,CLR,,0.00,214.0,WeatherDisplay:10.37,2013-09-17 20:13:00,
2013-09-17 15:18:00,65.0,51.7,30.17,South,183,0.0,0.0,62,0.00,CLR,,0.00,204.0,WeatherDisplay:10.37,2013-09-17 20:18:00,
2013-09-17 15:23:00,64.8,51.5,30.17,SSE,163,0.0,0.0,62,0.00,SCT,,0.00,193.0,WeatherDisplay:10.37,2013-09-17 20:23:00,
2013-09-17 15:28:00,64.8,51.5,30.17,South,174,1.3,4.6,62,0.00,SCT,,0.00,188.0,WeatherDisplay:10.37,2013-09-17 20:28:00,
2013-09-17 15:33:00,64.8,52.3,30.17,SSE,161,0.1,1.1,64,0.00,SCT,,0.00,186.0,WeatherDisplay:10.37,2013-09-17 20:33:00,
2013-09-17 15:38:00,64.7,51.8,30.17,SSE,158,2.1,6.6,63,0.00,SCT,,0.00,199.0,WeatherDisplay:10.37,2013-09-17 20:38:00,
2013-09-17 15:43:00,64.8,51.9,30.17,South,169,0.0,0.0,63,0.00,SCT,,0.00,218.0,WeatherDisplay:10.37,2013-09-17 20:43:00,
2013-09-17 15:48:00,64.8,52.3,30.16,South,178,0.0,3.5,64,0.00,SCT,,0.00,250.0,WeatherDisplay:10.37,2013-09-17 20:48:00,
2013-09-17 15:53:00,65.0,52.1,30.16,SSE,165,0.8,4.6,63,0.00,SCT,,0.00,269.0,WeatherDisplay:10.37,2013-09-17 20:53:00,
2013-09-17 15:58:00,65.2,51.8,30.16,South,171,0.0,0.0,62,0.00,SCT,,0.00,269.0,WeatherDisplay:10.37,2013-09-17 20:58:00,
2013-09-17 16:03:00,65.3,51.9,30.15,SSE,167,0.4,8.1,62,0.00,SCT,,0.00,269.0,WeatherDisplay:10.37,2013-09-17 21:03:00,
2013-09-17 16:08:00,65.2,52.3,30.15,SSW,196,3.5,8.8,63,0.00,SCT,,0.00,265.0,WeatherDisplay:10.37,2013-09-17 21:08:00,
2013-09-17 16:13:00,65.5,52.6,30.15,South,171,0.0,0.0,63,0.00,SCT,,0.00,251.0,WeatherDisplay:10.37,2013-09-17 21:13:00,
2013-09-17 16:18:00,65.5,52.1,30.15,South,177,1.9,5.8,62,0.00,SCT,,0.00,230.0,WeatherDisplay:10.37,2013-09-17 21:18:00,
2013-09-17 16:23:00,65.3,52.4,30.15,South,178,0.0,0.0,63,0.00,SCT,,0.00,214.0,WeatherDisplay:10.37,2013-09-17 21:23:00,
2013-09-17 16:28:00,65.5,52.6,30.15,South,179,0.0,1.1,63,0.00,SCT,,0.00,204.0,WeatherDisplay:10.37,2013-09-17 21:28:00,
2013-09-17 16:33:00,65.3,52.4,30.14,South,176,3.6,5.8,63,0.00,SCT,,0.00,190.0,WeatherDisplay:10.37,2013-09-17 21:33:00,
2013-09-17 16:38:00,65.3,52.4,30.14,SSE,167,0.1,1.2,63,0.00,SCT,,0.00,176.0,WeatherDisplay:10.37,2013-09-17 21:38:00,
2013-09-17 16:43:00,65.2,52.7,30.14,South,190,0.6,3.3,64,0.00,SCT,,0.00,158.0,WeatherDisplay:10.37,2013-09-17 21:43:00,
2013-09-17 16:48:00,65.2,52.7,30.13,South,190,0.0,0.0,64,0.00,SCT,,0.00,132.0,WeatherDisplay:10.37,2013-09-17 21:48:00,
2013-09-17 16:53:00,65.2,53.1,30.13,South,190,0.0,0.0,65,0.00,BKN,,0.00,139.0,WeatherDisplay:10.37,2013-09-17 21:53:00,
2013-09-17 16:58:00,65.2,52.7,30.13,SSE,167,0.1,1.2,64,0.00,BKN,,0.00,153.0,WeatherDisplay:10.37,2013-09-17 21:58:00,
2013-09-17 17:03:00,65.2,52.7,30.13,South,179,0.0,0.0,64,0.00,BKN,,0.00,139.0,WeatherDisplay:10.37,2013-09-17 22:03:00,
2013-09-17 17:08:00,65.2,53.1,30.13,SSE,166,0.4,2.3,65,0.00,BKN,,0.00,105.0,WeatherDisplay:10.37,2013-09-17 22:08:00,
2013-09-17 17:13:00,65.2,53.1,30.13,South,174,0.0,0.0,65,0.00,BKN,,0.00,84.0,WeatherDisplay:10.37,2013-09-17 22:13:00,
2013-09-17 17:18:00,65.2,53.1,30.13,South,171,0.2,5.8,65,0.00,BKN,,0.00,72.0,WeatherDisplay:10.37,2013-09-17 22:18:00,
2013-09-17 17:23:00,65.2,53.6,30.13,South,182,0.0,1.1,66,0.00,-RA,,0.00,63.0,WeatherDisplay:10.37,2013-09-17 22:23:00,
2013-09-17 17:28:00,65.2,53.6,30.13,South,182,0.0,0.0,66,0.00,-RA,,0.00,62.0,WeatherDisplay:10.37,2013-09-17 22:28:00,
2013-09-17 17:33:00,65.0,53.4,30.13,South,182,0.0,0.0,66,0.00,-RA,,0.00,58.0,WeatherDisplay:10.37,2013-09-17 22:33:00,
2013-09-17 17:38:00,65.0,53.4,30.13,South,175,0.0,4.6,66,0.00,-RA,,0.00,53.0,WeatherDisplay:10.37,2013-09-17 22:38:00,
2013-09-17 17:43:00,65.0,53.4,30.13,South,176,0.0,1.1,66,0.00,-RA,,0.00,44.0,WeatherDisplay:10.37,2013-09-17 22:43:00,
2013-09-17 17:48:00,65.0,53.8,30.12,South,176,0.0,0.0,67,0.00,-RA,,0.00,35.0,WeatherDisplay:10.37,2013-09-17 22:48:00,
2013-09-17 17:53:00,64.8,53.6,30.12,South,176,0.0,1.2,67,0.00,-RA,,0.00,26.0,WeatherDisplay:10.37,2013-09-17 22:53:00,
2013-09-17 17:58:00,64.8,53.6,30.12,South,177,0.0,1.2,67,0.00,-RA,,0.00,16.0,WeatherDisplay:10.37,2013-09-17 22:58:00,
2013-09-17 18:03:00,64.7,53.9,30.12,South,177,0.0,0.0,68,0.00,-RA,,0.00,12.0,WeatherDisplay:10.37,2013-09-17 23:03:00,
2013-09-17 18:08:00,64.5,53.7,30.12,South,177,0.0,0.0,68,0.00,-RA,,0.00,11.0,WeatherDisplay:10.37,2013-09-17 23:08:00,
2013-09-17 18:13:00,64.3,53.5,30.12,South,177,0.0,0.0,68,0.00,-DZ,,0.00,14.0,WeatherDisplay:10.37,2013-09-17 23:13:00,
2013-09-17 18:18:00,64.3,53.9,30.11,South,177,0.0,0.0,69,0.00,-DZ,,0.00,14.0,WeatherDisplay:10.37,2013-09-17 23:18:00,
2013-09-17 18:23:00,64.2,53.8,30.11,South,177,0.0,0.0,69,0.00,OVC,,0.00,9.0,WeatherDisplay:10.37,2013-09-17 23:23:00,
2013-09-17 18:28:00,64.2,54.2,30.11,South,177,0.0,0.0,70,0.00,OVC,,0.00,7.0,WeatherDisplay:10.37,2013-09-17 23:28:00,
2013-09-17 18:33:00,64.0,54.4,30.11,South,177,0.0,0.0,71,0.00,OVC,,0.00,5.0,WeatherDisplay:10.37,2013-09-17 23:33:00,
2013-09-17 18:38:00,63.7,54.9,30.11,South,177,0.0,0.0,73,0.00,OVC,,0.00,0.0,WeatherDisplay:10.37,2013-09-17 23:38:00,
2013-09-17 18:43:00,63.4,55.0,30.11,South,177,0.0,0.0,74,0.00,OVC,,0.00,0.0,WeatherDisplay:10.37,2013-09-17 23:43:00,
2013-09-17 18:49:00,63.1,55.0,30.10,South,177,0.0,0.0,75,0.00,OVC,,0.00,0.0,WeatherDisplay:10.37,2013-09-17 23:49:00,
2013-09-17 18:54:00,62.9,55.2,30.10,South,177,0.0,0.0,76,0.00,OVC,,0.00,0.0,WeatherDisplay:10.37,2013-09-17 23:54:00,
2013-09-17 18:59:00,62.6,55.6,30.10,South,177,0.0,0.0,78,0.00,OVC,,0.00,0.0,WeatherDisplay:10.37,2013-09-17 23:59:00,
2013-09-17 19:04:00,62.3,55.7,30.10,South,177,0.0,0.0,79,0.00,OVC,,0.00,0.0,WeatherDisplay:10.37,2013-09-18 00:04:00,
2013-09-17 19:09:00,61.8,55.6,30.10,South,177,0.0,0.0,80,0.01,RA,,0.01,0.0,WeatherDisplay:10.37,2013-09-18 00:09:00,
2013-09-17 19:14:00,61.6,56.0,30.10,South,177,0.0,0.0,82,0.01,RA,,0.01,0.0,WeatherDisplay:10.37,2013-09-18 00:14:00,
2013-09-17 19:19:00,61.2,56.0,30.10,South,177,0.0,0.0,83,0.01,OVC,,0.01,0.0,WeatherDisplay:10.37,2013-09-18 00:19:00,
2013-09-17 19:24:00,61.0,56.1,30.10,South,177,0.0,0.0,84,0.01,OVC,,0.01,0.0,WeatherDisplay:10.37,2013-09-18 00:24:00,
2013-09-17 19:29:00,60.7,55.8,30.10,South,177,0.0,0.0,84,0.01,OVC,,0.01,0.0,WeatherDisplay:10.37,2013-09-18 00:29:00,
2013-09-17 19:34:00,60.5,55.6,30.09,South,177,0.0,0.0,84,0.01,OVC,,0.01,0.0,WeatherDisplay:10.37,2013-09-18 00:34:00,
2013-09-17 19:39:00,60.2,55.7,30.09,South,177,0.0,0.0,85,0.01,OVC,,0.01,0.0,WeatherDisplay:10.37,2013-09-18 00:39:00,
2013-09-17 19:44:00,60.2,56.0,30.09,South,177,0.0,0.0,86,0.02,RA,,0.02,0.0,WeatherDisplay:10.37,2013-09-18 00:44:00,
2013-09-17 19:49:00,60.1,56.2,30.10,South,177,0.0,0.0,87,0.03,RA,,0.03,0.0,WeatherDisplay:10.37,2013-09-18 00:49:00,
2013-09-17 19:54:00,59.9,56.3,30.10,South,177,0.0,0.0,88,0.05,RA,,0.05,0.0,WeatherDisplay:10.37,2013-09-18 00:54:00,
2013-09-17 19:59:00,59.8,56.6,30.10,South,177,0.0,0.0,89,0.05,RA,,0.05,0.0,WeatherDisplay:10.37,2013-09-18 00:59:00,
2013-09-17 20:04:00,59.6,56.4,30.10,South,177,0.0,0.0,89,0.05,OVC,,0.05,0.0,WeatherDisplay:10.37,2013-09-18 01:04:00,
2013-09-17 20:09:00,59.5,56.6,30.10,South,176,0.0,0.0,90,0.03,OVC,,0.05,0.0,WeatherDisplay:10.37,2013-09-18 01:09:00,
2013-09-17 20:14:00,59.3,56.4,30.10,South,177,0.0,0.0,90,0.05,RA,,0.06,0.0,WeatherDisplay:10.37,2013-09-18 01:14:00,
2013-09-17 20:19:00,59.2,56.6,30.10,South,177,0.0,0.0,91,0.07,RA,,0.08,0.0,WeatherDisplay:10.37,2013-09-18 01:19:00,
2013-09-17 20:24:00,59.0,56.4,30.10,South,177,0.0,0.0,91,0.08,RA,,0.09,0.0,WeatherDisplay:10.37,2013-09-18 01:24:00,
2013-09-17 20:29:00,59.0,56.7,30.10,South,177,0.0,0.0,92,0.09,RA,,0.10,0.0,WeatherDisplay:10.37,2013-09-18 01:29:00,
2013-09-17 20:34:00,58.9,56.6,30.09,South,177,0.0,0.0,92,0.09,RA,,0.10,0.0,WeatherDisplay:10.37,2013-09-18 01:34:00,
2013-09-17 20:39:00,58.9,56.6,30.09,South,177,0.0,0.0,92,0.09,OVC,,0.10,0.0,WeatherDisplay:10.37,2013-09-18 01:39:00,
2013-09-17 20:44:00,58.9,56.9,30.09,South,177,0.0,0.0,93,0.08,OVC,,0.10,0.0,WeatherDisplay:10.37,2013-09-18 01:44:00,
2013-09-17 20:49:00,58.9,56.9,30.09,South,177,0.0,0.0,93,0.07,OVC,,0.10,0.0,WeatherDisplay:10.37,2013-09-18 01:49:00,
2013-09-17 20:54:00,58.7,56.7,30.09,South,177,0.0,0.0,93,0.06,OVC,,0.10,0.0,WeatherDisplay:10.37,2013-09-18 01:54:00,
2013-09-17 20:59:00,58.7,56.7,30.09,South,177,0.0,0.0,93,0.06,OVC,,0.10,0.0,WeatherDisplay:10.37,2013-09-18 01:59:00,
2013-09-17 21:04:00,58.7,56.7,30.09,South,177,0.0,0.0,93,0.06,OVC,,0.10,0.0,WeatherDisplay:10.37,2013-09-18 02:04:00,
2013-09-17 21:09:00,58.7,56.7,30.09,South,177,0.0,1.1,93,0.06,OVC,,0.10,0.0,WeatherDisplay:10.37,2013-09-18 02:09:00,
2013-09-17 21:14:00,58.7,56.7,30.08,South,177,0.0,0.0,93,0.03,OVC,,0.10,0.0,WeatherDisplay:10.37,2013-09-18 02:14:00,
2013-09-17 21:19:00,58.6,56.6,30.08,South,177,0.0,0.0,93,0.02,OVC,,0.10,0.0,WeatherDisplay:10.37,2013-09-18 02:19:00,
2013-09-17 21:24:00,58.6,56.6,30.08,South,177,0.0,0.0,93,0.01,OVC,,0.10,0.0,WeatherDisplay:10.37,2013-09-18 02:24:00,
2013-09-17 21:29:00,58.6,56.9,30.08,South,177,0.0,0.0,94,0.00,OVC,,0.10,0.0,WeatherDisplay:10.37,2013-09-18 02:29:00,
2013-09-17 21:34:00,58.6,56.9,30.08,South,177,0.0,0.0,94,0.00,OVC,,0.10,0.0,WeatherDisplay:10.37,2013-09-18 02:34:00,
2013-09-17 21:39:00,58.6,56.9,30.08,South,177,0.0,0.0,94,0.00,OVC,,0.10,0.0,WeatherDisplay:10.37,2013-09-18 02:39:00,
2013-09-17 21:44:00,58.6,56.9,30.08,South,177,0.0,0.0,94,0.00,OVC,,0.10,0.0,WeatherDisplay:10.37,2013-09-18 02:44:00,
2013-09-17 21:49:00,58.4,56.7,30.07,South,177,0.0,0.0,94,0.00,OVC,,0.10,0.0,WeatherDisplay:10.37,2013-09-18 02:49:00,
2013-09-17 21:54:00,58.4,56.7,30.07,South,177,0.0,0.0,94,0.00,OVC,,0.10,0.0,WeatherDisplay:10.37,2013-09-18 02:54:00,
2013-09-17 21:59:00,58.4,56.7,30.07,South,177,0.0,0.0,94,0.00,OVC,,0.10,0.0,WeatherDisplay:10.37,2013-09-18 02:59:00,
2013-09-17 22:04:00,58.4,56.7,30.07,South,177,0.0,0.0,94,0.00,OVC,,0.10,0.0,WeatherDisplay:10.37,2013-09-18 03:04:00,
2013-09-17 22:09:00,58.6,56.9,30.07,South,177,0.0,0.0,94,0.00,OVC,,0.10,0.0,WeatherDisplay:10.37,2013-09-18 03:09:00,
2013-09-17 22:14:00,58.6,56.9,30.07,South,177,0.0,0.0,94,0.00,OVC,,0.10,0.0,WeatherDisplay:10.37,2013-09-18 03:14:00,
2013-09-17 22:19:00,58.6,57.2,30.07,South,177,0.0,0.0,95,0.00,OVC,,0.10,0.0,WeatherDisplay:10.37,2013-09-18 03:19:00,
2013-09-17 22:24:00,58.6,57.2,30.07,South,177,0.0,0.0,95,0.00,OVC,,0.10,0.0,WeatherDisplay:10.37,2013-09-18 03:24:00,
2013-09-17 22:29:00,58.6,57.2,30.07,South,177,0.0,0.0,95,0.00,OVC,,0.10,0.0,WeatherDisplay:10.37,2013-09-18 03:29:00,
2013-09-17 22:34:00,58.6,57.2,30.07,South,177,0.0,1.1,95,0.00,OVC,,0.10,0.0,WeatherDisplay:10.37,2013-09-18 03:34:00,
2013-09-17 22:39:00,58.6,57.2,30.07,South,177,0.0,0.0,95,0.00,OVC,,0.10,0.0,WeatherDisplay:10.37,2013-09-18 03:39:00,
2013-09-17 22:44:00,58.6,57.2,30.07,South,177,0.0,0.0,95,0.00,OVC,,0.10,0.0,WeatherDisplay:10.37,2013-09-18 03:44:00,
2013-09-17 22:49:00,58.6,57.2,30.07,South,177,0.0,0.0,95,0.00,OVC,,0.10,0.0,WeatherDisplay:10.37,2013-09-18 03:49:00,
2013-09-17 22:54:00,58.7,57.3,30.07,South,177,0.0,1.1,95,0.00,OVC,,0.10,0.0,WeatherDisplay:10.37,2013-09-18 03:54:00,
2013-09-17 22:59:00,58.7,57.3,30.07,South,177,0.0,0.0,95,0.00,OVC,,0.10,0.0,WeatherDisplay:10.37,2013-09-18 03:59:00,
2013-09-17 23:01:00,58.7,57.3,30.06,South,176,0.0,0.0,95,0.00,OVC,,0.10,0.0,WeatherDisplay:10.37,2013-09-18 04:01:00,
2013-09-17 23:02:00,58.7,57.3,30.06,South,177,0.0,0.0,95,0.00,-RA,,0.10,0.0,WeatherDisplay:10.37,2013-09-18 04:02:00,
2013-09-17 23:03:00,58.7,57.3,30.06,South,177,0.0,0.0,95,0.00,-RA,,0.10,0.0,WeatherDisplay:10.37,2013-09-18 04:03:00,
2013-09-17 23:08:00,58.7,57.3,30.06,South,177,0.0,1.1,95,0.00,-RA,,0.10,0.0,WeatherDisplay:10.37,2013-09-18 04:08:00,
2013-09-17 23:13:00,58.7,57.3,30.06,South,177,0.0,0.0,95,0.00,-RA,,0.10,0.0,WeatherDisplay:10.37,2013-09-18 04:13:00,
2013-09-17 23:18:00,58.7,57.3,30.06,South,177,0.0,0.0,95,0.00,-RA,,0.10,0.0,WeatherDisplay:10.37,2013-09-18 04:18:00,
2013-09-17 23:23:00,58.7,57.3,30.06,South,177,0.0,0.0,95,0.00,-RA,,0.10,0.0,WeatherDisplay:10.37,2013-09-18 04:23:00,
2013-09-17 23:28:00,58.9,57.5,30.06,South,177,0.0,0.0,95,0.00,-RA,,0.10,0.0,WeatherDisplay:10.37,2013-09-18 04:28:00,
2013-09-17 23:33:00,58.9,57.2,30.05,South,177,0.0,1.2,94,0.00,-RA,,0.10,0.0,WeatherDisplay:10.37,2013-09-18 04:33:00,
2013-09-17 23:38:00,58.9,57.2,30.05,South,177,0.0,0.0,94,0.00,-RA,,0.10,0.0,WeatherDisplay:10.37,2013-09-18 04:38:00,
2013-09-17 23:43:00,58.9,57.2,30.05,South,177,0.0,0.0,94,0.00,OVC,,0.10,0.0,WeatherDisplay:10.37,2013-09-18 04:43:00,
2013-09-17 23:48:00,58.9,57.2,30.05,South,177,0.0,0.0,94,0.00,OVC,,0.10,0.0,WeatherDisplay:10.37,2013-09-18 04:48:00,
2013-09-17 23:53:00,58.9,57.2,30.05,South,177,0.0,0.0,94,0.00,OVC,,0.10,0.0,WeatherDisplay:10.37,2013-09-18 04:53:00,
2013-09-17 23:58:00,59.0,57.3,30.05,South,177,0.0,0.0,94,0.00,OVC,,0.10,0.0,WeatherDisplay:10.37,2013-09-18 04:58:00,